Regional Weather Roundup
Issued by NWS

Home | Current Version | Previous Version | Graphics & Text | Print | Product List | Glossary On
Versions: 1 2 3 4 5 6 7 8 9 10 11 12 13 14 15 16 17 18 19 20 21 22 23 24 25 26 27 28 29 30 31 32 33 34 35 36 37 38 39 40 41 42 43 44 45 46 47 48 49 50
515
ASUS43 KOAX 241610
RWRNE

WEATHER ROUNDUP FOR NEBRASKA
NATIONAL WEATHER SERVICE OMAHA NE
1000 AM CST FRI NOV 24 2017

NOTES: SATELLITE DATA IS BEING USED TO AUGMENT CLOUD COVER ABOVE
       12000 FEET.
       "FAIR" INDICATES FEW OR NO CLOUDS BELOW 12,000 FEET WITH NO
       SIGNIFICANT WEATHER AND/OR OBSTRUCTIONS TO VISIBILITY.


NEZ001>004-019>022-054>056-241700-
NEBRASKA PANHANDLE

CITY           SKY/WX    TMP DP  RH WIND       PRES   REMARKS
SCOTTSBLUFF    CLOUDY    62  32  32 W22G29    29.75R
ALLIANCE       CLOUDY    57  37  47 NW15G32   29.77R
CHADRON        MOSUNNY   58  38  47 N9        29.79R
GORDON         PTSUNNY   56  38  49 N21G31    29.75R
KIMBALL        CLOUDY    57  28  33 NW12      29.83R
SIDNEY         CLOUDY    56  31  38 W15       29.79R
$$

NEZ057>060-069>072-079>082-241700-
SOUTHWEST NEBRASKA

CITY           SKY/WX    TMP DP  RH WIND       PRES   REMARKS
NORTH PLATTE   SUNNY     62  39  42 W15       29.69R
IMPERIAL       CLOUDY    62  32  32 NW13      29.74S
LEXINGTON      SUNNY     71  37  28 W23G29    29.64S
MCCOOK         SUNNY     57  37  47 SW12      29.70S
OGALLALA       CLOUDY    55  36  49 SW13      29.74R
$$

NEZ005>010-023>029-035>040-094-241700-
NORTH CENTRAL NEBRASKA

CITY           SKY/WX    TMP DP  RH WIND       PRES   REMARKS
VALENTINE      SUNNY     61  37  41 N29G44    29.68R
AINSWORTH      SUNNY     61  38  42 NW33G41   29.64R
BROKEN BOW     SUNNY     68  38  33 W22G32    29.60R
O`NEILL        SUNNY     62  41  44 NW24G35   29.55R
ORD            SUNNY     69  38  32 NW24G38   29.54S
THEDFORD       SUNNY     67  37  33 NW28G39   29.67R
$$

NEZ041-046>049-061>064-073>077-083>087-241700-
SOUTH CENTRAL NEBRASKA

CITY           SKY/WX    TMP DP  RH WIND       PRES   REMARKS
GRAND ISLAND   SUNNY     64  39  39 W18G25    29.57F
AURORA         SUNNY     63  37  38 W18       29.56F
HASTINGS       SUNNY     63  35  35 W18       29.60F
HEBRON         MOSUNNY   62  39  42 W10       29.60F
HOLDREGE       SUNNY     65  39  37 W22G28    29.64S
KEARNEY        SUNNY     62  38  40 W17       29.61F
YORK           SUNNY     64  39  39 W17G24    29.55F
$$

NEZ011>018-030>034-042>045-241700-
NORTHEAST NEBRASKA

CITY           SKY/WX    TMP DP  RH WIND       PRES   REMARKS
NORFOLK        SUNNY     61  42  49 W16       29.46F
ALBION         SUNNY     63  42  45 W8        29.52S
BLAIR          SUNNY     57  41  54 SW14G21   29.49S
COLUMBUS       SUNNY     58  40  51 W9        29.51F
FREMONT        SUNNY     61  40  44 W8        29.49F
TEKAMAH        SUNNY     58  40  51 SW10      29.47F
WAYNE          SUNNY     60  38  44 W9        29.46S
$$

NEZ050>053-065>068-078-088>093-241700-
SOUTHEAST NEBRASKA

CITY           SKY/WX    TMP DP  RH WIND       PRES   REMARKS
LINCOLN        SUNNY     62  38  40 SW9       29.56S
OMAHA EPPLEY   MOSUNNY   59  40  49 S9        29.50F
BEATRICE       SUNNY     60  41  51 SW10      29.58F
FALLS CITY     SUNNY     62  39  42 SW17      29.57F
NEBRASKA CITY  SUNNY     60  41  49 SW20      29.55S
PLATTSMOUTH    SUNNY     60  42  51 SW16      29.51F
$$

NEZ044-045-051>053-067-241700-
OMAHA AREA

CITY           SKY/WX    TMP DP  RH WIND       PRES   REMARKS
OMAHA EPPLEY   MOSUNNY   59  40  49 S9        29.50F
BLAIR          SUNNY     57  41  54 SW14G21   29.49S
FREMONT        SUNNY     61  40  44 W8        29.49F
MILLARD        SUNNY     60  41  49 SW8       29.51F
OFFUTT AFB     SUNNY     60  40  48 CALM      29.51F
PLATTSMOUTH    SUNNY     60  42  51 SW16      29.51F
WAHOO          FAIR      62  38  41 W16G23    29.50S
$$




USA.gov is the U.S. government's official web portal to all federal, state and local government web resources and services.